Tracking 17150 objects as of 4-August-2015
HD Live streaming from Space Station

AMC-5 (GE-5)

Track AMC-5 (GE-5) now!
AMC-5 (GE-5) is classified as:


NORAD ID: 25516
Int'l Code: 1998-063B
Perigee: 36,043.3 km
Apogee: 36,074.1 km
Inclination: 4.1 °
Period: 1,449.7 minutes
Semi major axis: 42429 km
RCS: 9.3322 m2 (large)
Launch date: October 28, 1998
Source: SOCIETE EUROPEENNE DES SATELLITES (SES)

Broadband internet, business television; 16 Ku-band; CONUS
Your satellite tracking list
Your tracking list is empty





NASA's NSSDC Master Catalog

Two Line Element Set (TLE):
1 25516U 98063B   15213.64428071  .00000006  00000-0  00000+0 0  9994
2 25516 004.1205 064.8364 0003631 060.6592 258.3534 00.99334012 61384

Source of the keplerian elements: AFSPC

N2YO: 342